| time (UTC) | temp C | wind direction | speed KPH | gust KPH | rain 1hr cm | rain 24hr cm | rain mn cm | humidity % | barometer mb |
| 20260509222620 | 18 | 204 | 3.2 | 4.8 | 0.00 | 1.07 | 1.07 | 59 | 1004.2 |
| 20260509222116 | 18 | 222 | 6.4 | 11.3 | 0.00 | 1.07 | 1.07 | 56 | 1004.4 |
| 20260509221612 | 18 | 191 | 3.2 | 11.3 | 0.00 | 1.07 | 1.07 | 55 | 1004.2 |
| 20260509221108 | 18 | 186 | 3.2 | 9.7 | 0.00 | 1.07 | 1.07 | 59 | 1003.9 |
| 20260509220604 | 18 | 218 | 4.8 | 12.9 | 0.00 | 1.07 | 1.07 | 56 | 1004.4 |
| 20260509220101 | 17 | 224 | 4.8 | 12.9 | 0.00 | 1.07 | 1.07 | 57 | 1004.2 |
| 20260509215556 | 18 | 221 | 4.8 | 14.5 | 0.00 | 1.07 | 1.07 | 56 | 1004.5 |
| 20260509215054 | 18 | 212 | 1.6 | 9.7 | 0.00 | 1.07 | 1.07 | 58 | 1004.5 |
| 20260509214551 | 18 | 209 | 6.4 | 11.3 | 0.00 | 1.07 | 1.07 | 54 | 1004.6 |
| 20260509214047 | 18 | 216 | 4.8 | 6.4 | 0.00 | 1.07 | 1.07 | 58 | 1004.5 |
| 20260509213543 | 18 | 196 | 6.4 | 12.9 | 0.00 | 1.07 | 1.07 | 56 | 1004.6 |
| 20260509213040 | 18 | 200 | 6.4 | 11.3 | 0.00 | 1.07 | 1.07 | 59 | 1004.6 |
| 20260509212537 | 18 | 183 | 3.2 | 12.9 | 0.00 | 1.07 | 1.07 | 56 | 1004.5 |
| 20260509212034 | 18 | 208 | 4.8 | 9.7 | 0.00 | 1.07 | 1.07 | 58 | 1004.5 |
| 20260509211530 | 18 | 189 | 6.4 | 9.7 | 0.00 | 1.07 | 1.07 | 57 | 1004.7 |
| 20260509211027 | 18 | 198 | 3.2 | 4.8 | 0.00 | 1.07 | 1.07 | 58 | 1004.8 |
| 20260509210523 | 17 | 263 | 4.8 | 11.3 | 0.00 | 1.07 | 1.07 | 59 | 1004.9 |
| 20260509210021 | 17 | 197 | 3.2 | 6.4 | 0.00 | 1.07 | 1.07 | 57 | 1004.8 |
| 20260509205520 | 17 | 204 | 3.2 | 17.7 | 0.00 | 1.07 | 1.07 | 63 | 1004.8 |
| 20260509205015 | 18 | 227 | 6.4 | 6.4 | 0.00 | 1.07 | 1.07 | 55 | 1005.1 |
| 20260509204512 | 17 | 232 | 1.6 | 6.4 | 0.00 | 1.07 | 1.07 | 66 | 1004.8 |
| 20260509204009 | 18 | 210 | 11.3 | 16.1 | 0.00 | 1.07 | 1.07 | 59 | 1004.8 |
| 20260509203504 | 17 | 282 | 16.1 | 24.1 | 0.00 | 1.07 | 1.07 | 57 | 1005.2 |
| 20260509203003 | 17 | 227 | 8.0 | 12.9 | 0.00 | 1.07 | 1.07 | 58 | 1005.2 |
| 20260509202458 | 17 | 197 | 3.2 | 6.4 | 0.00 | 1.07 | 1.07 | 63 | 1005.3 |
| 20260509201959 | 17 | 232 | 6.4 | 11.3 | 0.00 | 1.07 | 1.07 | 63 | 1005.3 |
| 20260509201454 | 17 | 229 | 6.4 | 9.7 | 0.00 | 1.07 | 1.07 | 63 | 1005.2 |
| 20260509200951 | 16 | 204 | 8.0 | 11.3 | 0.00 | 1.07 | 1.07 | 64 | 1005.3 |
| 20260509200446 | 17 | 215 | 3.2 | 9.7 | 0.00 | 1.07 | 1.07 | 63 | 1005.5 |
| 20260509195943 | 17 | 252 | 11.3 | 14.5 | 0.00 | 1.07 | 1.07 | 62 | 1005.4 |
| 20260509195439 | 18 | 208 | 6.4 | 11.3 | 0.00 | 1.07 | 1.07 | 62 | 1005.4 |
| 20260509194938 | 18 | 228 | 6.4 | 9.7 | 0.00 | 1.07 | 1.07 | 61 | 1005.6 |
| 20260509194434 | 17 | 218 | 4.8 | 6.4 | 0.00 | 1.07 | 1.07 | 66 | 1005.4 |
| 20260509193931 | 17 | 262 | 6.4 | 14.5 | 0.00 | 1.07 | 1.07 | 65 | 1005.5 |
| 20260509193430 | 16 | 224 | 6.4 | 16.1 | 0.00 | 1.07 | 1.07 | 64 | 1005.6 |
| 20260509192927 | 16 | 223 | 4.8 | 6.4 | 0.00 | 1.07 | 1.07 | 68 | 1005.7 |
| 20260509192424 | 16 | 214 | 6.4 | 4.8 | 0.00 | 1.07 | 1.07 | 69 | 1006.0 |
| 20260509191918 | 16 | 202 | 3.2 | 4.8 | 0.00 | 1.07 | 1.07 | 72 | 1006.0 |
| 20260509191414 | 16 | 46 | 6.4 | 11.3 | 0.00 | 1.07 | 1.07 | 68 | 1005.9 |
| 20260509190911 | 15 | 21 | 4.8 | 11.3 | 0.00 | 1.07 | 1.07 | 74 | 1005.9 |
| 20260509190408 | 15 | 236 | 6.4 | 6.4 | 0.00 | 1.07 | 1.07 | 73 | 1005.9 |
| 20260509185906 | 16 | 204 | 3.2 | 9.7 | 0.00 | 1.07 | 1.07 | 72 | 1006.1 |
| 20260509185402 | 16 | 256 | 4.8 | 9.7 | 0.00 | 1.07 | 1.07 | 73 | 1006.2 |
| 20260509184859 | 16 | 229 | 3.2 | 9.7 | 0.00 | 1.07 | 1.07 | 68 | 1006.1 |
| 20260509184356 | 16 | 227 | 6.4 | 9.7 | 0.00 | 1.07 | 1.07 | 70 | 1006.0 |
| 20260509183854 | 16 | 245 | 8.0 | 20.9 | 0.00 | 1.07 | 1.07 | 68 | 1006.1 |
| 20260509183348 | 16 | 239 | 6.4 | 14.5 | 0.00 | 1.07 | 1.07 | 73 | 1005.8 |
| 20260509182844 | 16 | 233 | 4.8 | 9.7 | 0.00 | 1.07 | 1.07 | 71 | 1006.1 |
| 20260509182341 | 16 | 274 | 8.0 | 17.7 | 0.00 | 1.07 | 1.07 | 74 | 1006.0 |
| 20260509181838 | 15 | 14 | 8.0 | 14.5 | 0.00 | 1.07 | 1.07 | 75 | 1006.2 |
| 20260509181335 | 15 | 224 | 6.4 | 6.4 | 0.00 | 1.07 | 1.07 | 77 | 1006.3 |
| 20260509180833 | 15 | 253 | 6.4 | 9.7 | 0.00 | 1.07 | 1.07 | 77 | 1006.3 |
| 20260509180329 | 13 | 210 | 6.4 | 9.7 | 0.00 | 1.07 | 1.07 | 82 | 1006.2 |
| 20260509175826 | 13 | 221 | 4.8 | 4.8 | 0.00 | 1.07 | 1.07 | 84 | 1006.4 |
| 20260509175322 | 13 | 214 | 4.8 | 11.3 | 0.00 | 1.07 | 1.07 | 82 | 1006.2 |
| 20260509174818 | 13 | 218 | 3.2 | 12.9 | 0.00 | 1.07 | 1.07 | 85 | 1006.2 |
| 20260509174313 | 13 | 261 | 6.4 | 14.5 | 0.00 | 1.07 | 1.07 | 82 | 1006.4 |
| 20260509173810 | 13 | 251 | 8.0 | 12.9 | 0.00 | 1.07 | 1.07 | 86 | 1006.5 |
| 20260509173305 | 12 | 200 | 4.8 | 6.4 | 0.00 | 1.07 | 1.07 | 87 | 1006.7 |
| 20260509172801 | 12 | 230 | 3.2 | 4.8 | 0.00 | 1.07 | 1.07 | 88 | 1006.4 |
| 20260509172259 | 12 | 250 | 6.4 | 12.9 | 0.00 | 1.07 | 1.07 | 87 | 1006.7 |
| 20260509171754 | 12 | 215 | 4.8 | 4.8 | 0.00 | 1.07 | 1.07 | 88 | 1006.7 |
| 20260509171250 | 12 | 232 | 1.6 | 9.7 | 0.00 | 1.07 | 1.07 | 87 | 1006.8 |
| 20260509170747 | 12 | 203 | 3.2 | 9.7 | 0.00 | 1.07 | 1.07 | 87 | 1006.5 |
| 20260509170243 | 12 | 223 | 6.4 | 11.3 | 0.00 | 1.07 | 1.07 | 88 | 1006.5 |
| 20260509165742 | 12 | 243 | 9.7 | 17.7 | 0.00 | 1.07 | 1.07 | 86 | 1006.5 |
| 20260509165237 | 12 | 278 | 6.4 | 14.5 | 0.00 | 1.07 | 1.07 | 89 | 1006.5 |
| 20260509164733 | 12 | 250 | 4.8 | 6.4 | 0.00 | 1.07 | 1.07 | 90 | 1006.5 |
| 20260509164229 | 11 | 228 | 1.6 | 11.3 | 0.00 | 1.07 | 1.07 | 91 | 1006.4 |
| 20260509163727 | 11 | 229 | 3.2 | 3.2 | 0.00 | 1.07 | 1.07 | 92 | 1006.5 |
| 20260509163223 | 11 | 218 | 3.2 | 6.4 | 0.00 | 1.07 | 1.07 | 91 | 1006.4 |
| 20260509162721 | 11 | 245 | 6.4 | 9.7 | 0.00 | 1.07 | 1.07 | 91 | 1006.5 |
| 20260509162216 | 11 | 237 | 3.2 | 9.7 | 0.00 | 1.07 | 1.07 | 92 | 1006.3 |
| 20260509161712 | 11 | 228 | 4.8 | 6.4 | 0.00 | 1.07 | 1.07 | 91 | 1006.5 |
| 20260509161208 | 11 | 186 | 4.8 | 4.8 | 0.00 | 1.07 | 1.07 | 92 | 1006.3 |
| 20260509160703 | 11 | 228 | 6.4 | 11.3 | 0.00 | 1.07 | 1.07 | 92 | 1006.4 |
| 20260509160200 | 11 | 219 | 3.2 | 4.8 | 0.00 | 1.07 | 1.07 | 92 | 1006.4 |
| 20260509155655 | 11 | 218 | 3.2 | 6.4 | 0.00 | 1.07 | 1.07 | 92 | 1006.2 |
| 20260509155152 | 11 | 221 | 1.6 | 6.4 | 0.00 | 1.07 | 1.07 | 92 | 1006.2 |
| 20260509154647 | 11 | 231 | 3.2 | 6.4 | 0.00 | 1.07 | 1.07 | 92 | 1006.1 |
| 20260509154145 | 11 | 258 | 8.0 | 11.3 | 0.00 | 1.07 | 1.07 | 92 | 1006.1 |
| 20260509153642 | 11 | 215 | 4.8 | 6.4 | 0.00 | 1.07 | 1.07 | 94 | 1006.2 |
| 20260509153138 | 11 | 230 | 3.2 | 9.7 | 0.00 | 1.07 | 1.07 | 94 | 1006.3 |
| 20260509152634 | 10 | 222 | 4.8 | 4.8 | 0.00 | 1.07 | 1.07 | 94 | 1006.1 |
| 20260509152132 | 10 | 235 | 4.8 | 6.4 | 0.00 | 1.07 | 1.07 | 94 | 1006.2 |
| 20260509151628 | 10 | 206 | 3.2 | 4.8 | 0.00 | 1.07 | 1.07 | 94 | 1006.2 |
| 20260509151126 | 10 | 271 | 6.4 | 6.4 | 0.00 | 1.07 | 1.07 | 94 | 1006.2 |
| 20260509150623 | 10 | 242 | 6.4 | 9.7 | 0.00 | 1.07 | 1.07 | 94 | 1006.1 |
| 20260509150121 | 10 | 240 | 3.2 | 11.3 | 0.00 | 1.07 | 1.07 | 94 | 1006.3 |
| 20260509145617 | 10 | 233 | 6.4 | 9.7 | 0.00 | 1.07 | 1.07 | 94 | 1006.2 |
| 20260509145112 | 10 | 209 | 3.2 | 6.4 | 0.00 | 1.07 | 1.07 | 95 | 1006.1 |
| 20260509144610 | 10 | 235 | 3.2 | 9.7 | 0.00 | 1.07 | 1.07 | 94 | 1006.1 |
| 20260509144106 | 10 | 220 | 1.6 | 6.4 | 0.00 | 1.07 | 1.07 | 95 | 1006.0 |
| 20260509143603 | 10 | 196 | 3.2 | 4.8 | 0.00 | 1.07 | 1.07 | 95 | 1006.2 |
| 20260509143101 | 10 | 228 | 6.4 | 4.8 | 0.00 | 1.07 | 1.07 | 95 | 1006.0 |
| 20260509142556 | 10 | 195 | 3.2 | 6.4 | 0.00 | 1.07 | 1.07 | 95 | 1006.2 |
| 20260509142053 | 10 | 214 | 4.8 | 4.8 | 0.00 | 1.07 | 1.07 | 95 | 1006.2 |
| 20260509141549 | 10 | 215 | 3.2 | 4.8 | 0.00 | 1.07 | 1.07 | 96 | 1006.2 |
| 20260509141045 | 10 | 214 | 3.2 | 4.8 | 0.00 | 1.07 | 1.07 | 96 | 1006.1 |
| 20260509140542 | 10 | 221 | 3.2 | 4.8 | 0.00 | 1.07 | 1.07 | 96 | 1006.3 |
| 20260509140041 | 10 | 257 | 6.4 | 9.7 | 0.00 | 1.07 | 1.07 | 96 | 1006.2 |
| 20260509135537 | 10 | 270 | 4.8 | 9.7 | 0.00 | 1.07 | 1.07 | 96 | 1006.2 |
| 20260509135035 | 10 | 213 | 4.8 | 4.8 | 0.00 | 1.07 | 1.07 | 96 | 1006.3 |
| 20260509134532 | 10 | 216 | 3.2 | 4.8 | 0.00 | 1.07 | 1.07 | 96 | 1006.3 |
| 20260509134029 | 10 | 206 | 3.2 | 9.7 | 0.00 | 1.07 | 1.07 | 96 | 1006.4 |
| 20260509133526 | 10 | 221 | 3.2 | 4.8 | 0.00 | 1.07 | 1.07 | 96 | 1006.4 |
| 20260509133024 | 9 | 185 | 1.6 | 4.8 | 0.00 | 1.07 | 1.07 | 96 | 1006.2 |
| 20260509132522 | 9 | 219 | 3.2 | 4.8 | 0.00 | 1.07 | 1.07 | 96 | 1006.5 |
| 20260509132020 | 9 | 237 | 6.4 | 6.4 | 0.00 | 1.07 | 1.07 | 96 | 1006.3 |
| 20260509131515 | 9 | 190 | 3.2 | 4.8 | 0.00 | 1.07 | 1.07 | 96 | 1006.5 |
| 20260509131013 | 9 | 147 | 3.2 | 3.2 | 0.00 | 1.07 | 1.07 | 96 | 1006.3 |
| 20260509130508 | 9 | 206 | 4.8 | 4.8 | 0.00 | 1.07 | 1.07 | 96 | 1006.3 |
| 20260509130005 | 9 | 171 | 1.6 | 4.8 | 0.00 | 1.07 | 1.07 | 96 | 1006.3 |
| 20260509125502 | 9 | 212 | 3.2 | 3.2 | 0.00 | 1.07 | 1.07 | 96 | 1006.4 |
| 20260509124957 | 9 | 243 | 6.4 | 6.4 | 0.00 | 1.07 | 1.07 | 96 | 1006.5 |
| 20260509124455 | 9 | 226 | 3.2 | 9.7 | 0.00 | 1.07 | 1.07 | 96 | 1006.4 |
| 20260509123952 | 9 | 206 | 1.6 | 6.4 | 0.00 | 1.07 | 1.07 | 96 | 1006.5 |
| 20260509123449 | 9 | 184 | 1.6 | 3.2 | 0.00 | 1.07 | 1.07 | 96 | 1006.4 |
| 20260509122945 | 9 | 163 | 0.0 | 1.6 | 0.00 | 1.07 | 1.07 | 96 | 1006.7 |
| 20260509122442 | 9 | 249 | 6.4 | 6.4 | 0.00 | 1.07 | 1.07 | 96 | 1006.8 |
| 20260509121939 | 8 | 215 | 3.2 | 11.3 | 0.18 | 1.07 | 1.07 | 96 | 1006.8 |
| 20260509121436 | 8 | 176 | 3.2 | 3.2 | 0.18 | 1.07 | 1.07 | 96 | 1006.7 |
| 20260509120934 | 8 | 200 | 1.6 | 3.2 | 0.00 | 1.04 | 1.04 | 96 | 1006.7 |
| 20260509120432 | 8 | 177 | 3.2 | 4.8 | 0.00 | 1.04 | 1.04 | 96 | 1006.7 |
| 20260509115930 | 8 | 132 | 1.6 | 1.6 | 0.00 | 1.04 | 1.04 | 96 | 1006.7 |
| 20260509115426 | 8 | 153 | 1.6 | 3.2 | 0.00 | 1.04 | 1.04 | 96 | 1006.8 |
| 20260509114924 | 8 | 199 | 3.2 | 3.2 | 0.00 | 1.04 | 1.04 | 97 | 1006.8 |
| 20260509114422 | 8 | 161 | 0.0 | 1.6 | 0.00 | 1.04 | 1.04 | 97 | 1006.8 |
| 20260509113922 | 8 | 161 | 3.2 | 3.2 | 0.00 | 1.04 | 1.04 | 97 | 1006.7 |
| 20260509113419 | 8 | 166 | 1.6 | 1.6 | 0.00 | 1.04 | 1.04 | 97 | 1006.8 |
| 20260509112915 | 8 | 10 | 3.2 | 3.2 | 0.00 | 1.04 | 1.04 | 97 | 1006.7 |
| 20260509112412 | 8 | 163 | 1.6 | 1.6 | 0.18 | 1.04 | 1.04 | 97 | 1006.7 |
| 20260509111909 | 8 | 163 | 0.0 | 1.6 | 0.18 | 1.04 | 1.04 | 97 | 1006.8 |
| 20260509111406 | 8 | 163 | 0.0 | 1.6 | 0.00 | 1.02 | 1.02 | 97 | 1006.7 |
| 20260509110904 | 8 | 163 | 0.0 | 1.6 | 0.00 | 1.02 | 1.02 | 97 | 1006.7 |
| 20260509110359 | 8 | 163 | 0.0 | 1.6 | 0.13 | 1.02 | 1.02 | 97 | 1006.7 |
| 20260509105858 | 8 | 165 | 1.6 | 1.6 | 0.00 | 0.99 | 0.99 | 97 | 1006.5 |
| 20260509105356 | 8 | 165 | 1.6 | 3.2 | 0.18 | 0.99 | 0.99 | 97 | 1006.4 |
| 20260509104853 | 8 | 166 | 1.6 | 3.2 | 0.18 | 0.99 | 0.99 | 97 | 1006.5 |
| 20260509104349 | 8 | 143 | 3.2 | 3.2 | 0.00 | 0.97 | 0.97 | 97 | 1006.4 |
| 20260509103847 | 8 | 158 | 3.2 | 3.2 | 0.00 | 0.97 | 0.97 | 97 | 1006.4 |
| 20260509103344 | 8 | 169 | 0.0 | 0.0 | 0.00 | 0.97 | 0.97 | 97 | 1006.5 |
| 20260509102843 | 8 | 169 | 3.2 | 3.2 | 0.30 | 0.97 | 0.97 | 97 | 1006.8 |
| 20260509102340 | 8 | 170 | 0.0 | 1.6 | 0.30 | 0.94 | 0.94 | 97 | 1006.8 |
| 20260509101835 | 8 | 171 | 1.6 | 1.6 | 0.30 | 0.91 | 0.91 | 97 | 1006.9 |
| 20260509101332 | 8 | 118 | 0.0 | 1.6 | 0.30 | 0.89 | 0.89 | 97 | 1006.7 |
| 20260509100830 | 8 | 117 | 3.2 | 3.2 | 0.30 | 0.86 | 0.86 | 97 | 1006.7 |
| 20260509100327 | 8 | 123 | 1.6 | 3.2 | 0.48 | 0.84 | 0.84 | 97 | 1006.9 |
| 20260509095823 | 8 | 121 | 1.6 | 3.2 | 0.48 | 0.79 | 0.79 | 97 | 1007.0 |
| 20260509095320 | 8 | 244 | 0.0 | 4.8 | 0.61 | 0.76 | 0.76 | 97 | 1007.2 |
| 20260509094817 | 8 | 105 | 0.0 | 1.6 | 0.48 | 0.71 | 0.71 | 97 | 1006.8 |
| 20260509094314 | 8 | 104 | 0.0 | 1.6 | 0.30 | 0.66 | 0.66 | 97 | 1007.2 |
| 20260509093812 | 8 | 104 | 0.0 | 1.6 | 0.30 | 0.64 | 0.64 | 97 | 1007.0 |
| 20260509093309 | 8 | 104 | 1.6 | 1.6 | 0.18 | 0.61 | 0.61 | 97 | 1007.2 |
| 20260509092808 | 7 | 104 | 1.6 | 1.6 | 0.13 | 0.58 | 0.58 | 97 | 1007.1 |
| 20260509092306 | 7 | 104 | 1.6 | 1.6 | 0.13 | 0.58 | 0.58 | 97 | 1007.2 |
| 20260509091803 | 7 | 104 | 0.0 | 1.6 | 0.18 | 0.56 | 0.56 | 97 | 1007.1 |
| 20260509091259 | 7 | 104 | 1.6 | 1.6 | 0.18 | 0.56 | 0.56 | 97 | 1007.1 |
| 20260509090757 | 7 | 104 | 1.6 | 3.2 | 0.00 | 0.53 | 0.53 | 97 | 1007.2 |
| 20260509090254 | 7 | 104 | 1.6 | 3.2 | 0.13 | 0.53 | 0.53 | 97 | 1007.4 |
| 20260509085751 | 7 | 104 | 0.0 | 0.0 | 0.30 | 0.53 | 0.53 | 97 | 1007.5 |
| 20260509085248 | 7 | 103 | 0.0 | 3.2 | 0.18 | 0.51 | 0.51 | 97 | 1007.5 |
| 20260509084745 | 7 | 109 | 1.6 | 1.6 | 0.13 | 0.48 | 0.48 | 97 | 1007.7 |
| 20260509084241 | 7 | 117 | 1.6 | 1.6 | 0.30 | 0.48 | 0.48 | 97 | 1007.6 |
| 20260509083740 | 7 | 117 | 0.0 | 3.2 | 0.30 | 0.46 | 0.46 | 97 | 1007.5 |
| 20260509083236 | 7 | 117 | 0.0 | 1.6 | 0.30 | 0.43 | 0.43 | 97 | 1007.4 |
| 20260509082732 | 7 | 116 | 1.6 | 3.2 | 0.36 | 0.41 | 0.41 | 97 | 1007.5 |
| 20260509082229 | 7 | 120 | 3.2 | 3.2 | 0.30 | 0.38 | 0.38 | 97 | 1007.3 |
| 20260509081726 | 7 | 119 | 3.2 | 3.2 | 0.43 | 0.36 | 0.36 | 97 | 1007.4 |
| 20260509081224 | 7 | 120 | 0.0 | 1.6 | 0.13 | 0.30 | 0.30 | 97 | 1007.6 |
| 20260509080722 | 7 | 120 | 1.6 | 1.6 | 0.18 | 0.28 | 0.28 | 97 | 1007.5 |
| 20260509080219 | 7 | 120 | 1.6 | 3.2 | 0.13 | 0.25 | 0.25 | 97 | 1007.5 |
| 20260509075717 | 7 | 111 | 1.6 | 3.2 | 0.43 | 0.25 | 0.25 | 97 | 1007.4 |
| 20260509075215 | 7 | 135 | 1.6 | 3.2 | 0.30 | 0.23 | 0.23 | 97 | 1007.3 |
| 20260509074711 | 7 | 133 | 0.0 | 3.2 | 0.18 | 0.18 | 0.18 | 97 | 1007.6 |
| 20260509074209 | 7 | 133 | 1.6 | 1.6 | 0.18 | 0.18 | 0.18 | 97 | 1007.6 |
| 20260509073705 | 7 | 125 | 0.0 | 1.6 | 0.00 | 0.15 | 0.15 | 97 | 1007.5 |
| 20260509073201 | 7 | 125 | 1.6 | 1.6 | 0.00 | 0.15 | 0.15 | 97 | 1007.5 |
| 20260509072658 | 7 | 124 | 1.6 | 3.2 | 0.00 | 0.15 | 0.15 | 97 | 1007.4 |
| 20260509072155 | 7 | 124 | 3.2 | 1.6 | 0.00 | 0.15 | 0.15 | 97 | 1007.4 |
| 20260509071651 | 7 | 125 | 3.2 | 3.2 | 0.00 | 0.15 | 0.15 | 97 | 1007.3 |
| 20260509071149 | 7 | 125 | 3.2 | 1.6 | 0.00 | 0.15 | 0.15 | 97 | 1007.4 |
| 20260509070645 | 7 | 125 | 1.6 | 1.6 | 0.00 | 0.15 | 0.15 | 97 | 1007.4 |
| 20260509070142 | 7 | 124 | 1.6 | 1.6 | 0.00 | 0.15 | 0.15 | 97 | 1007.5 |
| 20260509065638 | 7 | 105 | 1.6 | 1.6 | 0.00 | 0.15 | 0.15 | 97 | 1007.5 |
| 20260509065134 | 7 | 102 | 3.2 | 3.2 | 0.00 | 0.15 | 0.15 | 97 | 1007.4 |
| 20260509064631 | 7 | 105 | 1.6 | 4.8 | 0.00 | 0.15 | 0.15 | 97 | 1007.5 |
| 20260509064129 | 7 | 109 | 1.6 | 3.2 | 0.00 | 0.15 | 0.15 | 96 | 1007.3 |
| 20260509063626 | 7 | 109 | 3.2 | 3.2 | 0.13 | 0.15 | 0.15 | 97 | 1007.8 |
| 20260509063122 | 7 | 109 | 1.6 | 3.2 | 0.13 | 0.15 | 0.15 | 96 | 1007.7 |
| 20260509062620 | 7 | 108 | 3.2 | 4.8 | 0.00 | 0.13 | 0.13 | 96 | 1007.8 |
| 20260509062116 | 7 | 100 | 3.2 | 6.4 | 0.00 | 0.13 | 0.13 | 96 | 1007.8 |
| 20260509061613 | 7 | 102 | 3.2 | 3.2 | 0.18 | 0.13 | 0.13 | 97 | 1007.9 |
| 20260509061111 | 7 | 103 | 3.2 | 4.8 | 0.00 | 0.10 | 0.10 | 97 | 1008.1 |
| 20260509060609 | 7 | 106 | 3.2 | 3.2 | 0.00 | 0.10 | 0.10 | 97 | 1008.2 |
| 20260509060104 | 7 | 96 | 3.2 | 6.4 | 0.00 | 0.10 | 0.10 | 97 | 1008.1 |
| 20260509055600 | 7 | 121 | 1.6 | 1.6 | 0.00 | 0.10 | 0.10 | 96 | 1008.4 |
| 20260509055055 | 7 | 123 | 1.6 | 3.2 | 0.00 | 0.10 | 0.10 | 96 | 1008.4 |
| 20260509054553 | 7 | 110 | 3.2 | 3.2 | 0.00 | 0.10 | 0.10 | 96 | 1008.6 |
| 20260509054051 | 7 | 110 | 0.0 | 1.6 | 0.00 | 0.10 | 0.10 | 96 | 1008.5 |
| 20260509053549 | 7 | 113 | 3.2 | 3.2 | 0.00 | 0.10 | 0.10 | 96 | 1008.9 |
| 20260509053045 | 7 | 98 | 6.4 | 6.4 | 0.13 | 0.10 | 0.10 | 96 | 1008.6 |
| 20260509052543 | 7 | 105 | 3.2 | 4.8 | 0.00 | 0.08 | 0.08 | 96 | 1008.6 |
| 20260509052041 | 7 | 132 | 3.2 | 3.2 | 0.00 | 0.08 | 0.08 | 96 | 1008.9 |
| 20260509051539 | 7 | 147 | 3.2 | 3.2 | 0.00 | 0.08 | 0.08 | 96 | 1008.7 |
| 20260509051035 | 7 | 144 | 3.2 | 3.2 | 0.00 | 0.08 | 0.08 | 96 | 1008.5 |
| 20260509050533 | 7 | 110 | 1.6 | 4.8 | 0.00 | 0.08 | 0.08 | 96 | 1008.6 |
| 20260509050029 | 8 | 118 | 4.8 | 4.8 | 0.00 | 0.08 | 0.08 | 96 | 1008.7 |
| 20260509045526 | 7 | 119 | 6.4 | 6.4 | 0.18 | 0.08 | 0.08 | 96 | 1008.9 |
| 20260509045023 | 8 | 299 | 1.6 | 1.6 | 0.18 | 0.08 | 0.08 | 96 | 1009.2 |
| 20260509044520 | 8 | 298 | 3.2 | 3.2 | 0.00 | 0.05 | 0.05 | 96 | 1009.4 |
| 20260509044018 | 8 | 298 | 1.6 | 1.6 | 0.18 | 0.05 | 0.05 | 96 | 1009.4 |
| 20260509043514 | 8 | 298 | 1.6 | 3.2 | 0.00 | 0.03 | 0.03 | 96 | 1009.2 |
| 20260509043010 | 8 | 296 | 1.6 | 1.6 | 0.00 | 0.03 | 0.03 | 96 | 1009.4 |
| 20260509042506 | 8 | 296 | 3.2 | 3.2 | 0.13 | 0.03 | 0.03 | 96 | 1009.4 |
| 20260509042003 | 8 | 296 | 1.6 | 3.2 | 0.13 | 0.03 | 0.03 | 96 | 1009.3 |
| 20260509041459 | 8 | 296 | 0.0 | 0.0 | 0.00 | 0.00 | 0.00 | 96 | 1009.6 |
| 20260509040957 | 8 | 296 | 0.0 | 0.0 | 0.00 | 0.00 | 0.00 | 96 | 1009.9 |
| 20260509040455 | 8 | 296 | 1.6 | 1.6 | 0.18 | 0.00 | 0.00 | 96 | 1009.7 |
| 20260509035951 | 8 | 297 | 0.0 | 1.6 | 0.18 | 0.41 | 0.41 | 96 | 1009.6 |
| 20260509035448 | 8 | 297 | 0.0 | 1.6 | 0.13 | 0.38 | 0.38 | 96 | 1009.6 |
| 20260509034945 | 8 | 296 | 1.6 | 1.6 | 0.13 | 0.38 | 0.38 | 96 | 1009.7 |
| 20260509034443 | 8 | 296 | 1.6 | 3.2 | 0.00 | 0.36 | 0.36 | 96 | 1009.8 |
| 20260509033939 | 8 | 297 | 0.0 | 0.0 | 0.00 | 0.36 | 0.36 | 96 | 1009.7 |
| 20260509033437 | 8 | 297 | 0.0 | 0.0 | 0.00 | 0.36 | 0.36 | 96 | 1010.0 |
| 20260509032933 | 8 | 297 | 0.0 | 1.6 | 0.18 | 0.36 | 0.36 | 96 | 1009.9 |
| 20260509032431 | 8 | 297 | 1.6 | 1.6 | 0.18 | 0.36 | 0.36 | 96 | 1009.9 |
| 20260509031929 | 8 | 297 | 0.0 | 0.0 | 0.00 | 0.33 | 0.33 | 96 | 1010.0 |
| 20260509031426 | 8 | 297 | 1.6 | 1.6 | 0.00 | 0.33 | 0.33 | 96 | 1010.0 |
| 20260509030923 | 8 | 297 | 1.6 | 1.6 | 0.00 | 0.33 | 0.33 | 96 | 1010.3 |
| 20260509030421 | 8 | 297 | 0.0 | 1.6 | 0.13 | 0.33 | 0.33 | 96 | 1010.2 |
| 20260509025918 | 8 | 297 | 0.0 | 1.6 | 0.13 | 0.33 | 0.33 | 96 | 1010.2 |
| 20260509025413 | 8 | 297 | 0.0 | 1.6 | 0.00 | 0.30 | 0.30 | 96 | 1010.0 |
| 20260509024909 | 8 | 297 | 1.6 | 1.6 | 0.18 | 0.30 | 0.30 | 96 | 1010.2 |
| 20260509024405 | 8 | 297 | 0.0 | 0.0 | 0.18 | 0.30 | 0.30 | 96 | 1010.3 |
| 20260509023902 | 8 | 297 | 0.0 | 1.6 | 0.00 | 0.28 | 0.28 | 95 | 1010.4 |
| 20260509023359 | 8 | 296 | 1.6 | 1.6 | 0.13 | 0.28 | 0.28 | 95 | 1010.4 |
| 20260509022856 | 8 | 296 | 0.0 | 0.0 | 0.00 | 0.25 | 0.25 | 95 | 1010.5 |
| 20260509022353 | 8 | 296 | 1.6 | 1.6 | 0.00 | 0.25 | 0.25 | 95 | 1010.5 |
| 20260509021850 | 8 | 296 | 1.6 | 1.6 | 0.18 | 0.25 | 0.25 | 95 | 1010.6 |
| 20260509021347 | 8 | 296 | 1.6 | 3.2 | 0.18 | 0.25 | 0.25 | 95 | 1010.5 |
| 20260509020844 | 8 | 297 | 1.6 | 1.6 | 0.00 | 0.23 | 0.23 | 94 | 1010.2 |
| 20260509020343 | 8 | 297 | 0.0 | 0.0 | 0.00 | 0.23 | 0.23 | 94 | 1010.2 |
| 20260509015839 | 8 | 297 | 0.0 | 0.0 | 0.00 | 0.23 | 0.23 | 94 | 1010.2 |
| 20260509015338 | 8 | 297 | 3.2 | 3.2 | 0.00 | 0.23 | 0.23 | 94 | 1009.7 |
| 20260509014834 | 8 | 297 | 0.0 | 0.0 | 0.00 | 0.23 | 0.23 | 94 | 1009.8 |
| 20260509014331 | 8 | 297 | 1.6 | 1.6 | 0.00 | 0.23 | 0.23 | 94 | 1009.7 |
| 20260509013828 | 8 | 297 | 3.2 | 3.2 | 0.00 | 0.23 | 0.23 | 94 | 1010.0 |
| 20260509013324 | 8 | 297 | 1.6 | 1.6 | 0.13 | 0.23 | 0.23 | 94 | 1009.7 |
| 20260509012820 | 8 | 297 | 3.2 | 1.6 | 0.13 | 0.23 | 0.23 | 92 | 1009.8 |
| 20260509012317 | 8 | 297 | 1.6 | 1.6 | 0.00 | 0.20 | 0.20 | 91 | 1009.5 |
| 20260509011815 | 8 | 297 | 1.6 | 1.6 | 0.00 | 0.20 | 0.20 | 91 | 1009.7 |
| 20260509011312 | 8 | 297 | 0.0 | 0.0 | 0.00 | 0.20 | 0.20 | 90 | 1009.6 |
| 20260509010810 | 8 | 297 | 1.6 | 1.6 | 0.18 | 0.20 | 0.20 | 89 | 1009.6 |
| 20260509010306 | 8 | 297 | 0.0 | 0.0 | 0.00 | 0.18 | 0.18 | 89 | 1009.5 |
| 20260509005804 | 8 | 297 | 1.6 | 1.6 | 0.00 | 0.18 | 0.18 | 89 | 1009.5 |
| 20260509005305 | 8 | 297 | 0.0 | 0.0 | 0.00 | 0.18 | 0.18 | 88 | 1009.3 |
| 20260509004801 | 8 | 297 | 0.0 | 0.0 | 0.00 | 0.18 | 0.18 | 89 | 1009.4 |
| 20260509004258 | 8 | 298 | 0.0 | 1.6 | 0.00 | 0.18 | 0.18 | 90 | 1009.2 |
| 20260509003756 | 8 | 297 | 1.6 | 1.6 | 0.00 | 0.18 | 0.18 | 90 | 1009.2 |
| 20260509003254 | 8 | 297 | 0.0 | 1.6 | 0.00 | 0.18 | 0.18 | 87 | 1009.3 |
| 20260509002751 | 8 | 297 | 1.6 | 3.2 | 0.00 | 0.18 | 0.18 | 86 | 1009.5 |
| 20260509002248 | 8 | 300 | 3.2 | 6.4 | 0.00 | 0.18 | 0.18 | 86 | 1009.4 |
| 20260509001746 | 8 | 238 | 3.2 | 1.6 | 0.00 | 0.18 | 0.18 | 88 | 1009.1 |
| 20260509001241 | 8 | 239 | 3.2 | 3.2 | 0.00 | 0.18 | 0.18 | 87 | 1009.5 |
| 20260509000739 | 8 | 232 | 1.6 | 1.6 | 0.00 | 0.18 | 0.18 | 90 | 1009.4 |
| 20260509000236 | 8 | 231 | 3.2 | 3.2 | 0.00 | 0.18 | 0.18 | 91 | 1009.4 |
| 20260508235733 | 8 | 230 | 3.2 | 3.2 | 0.00 | 0.18 | 0.18 | 90 | 1009.3 |
| 20260508235230 | 8 | 230 | 0.0 | 0.0 | 0.00 | 0.18 | 0.18 | 89 | 1009.2 |
| 20260508234727 | 8 | 230 | 0.0 | 0.0 | 0.00 | 0.18 | 0.18 | 89 | 1008.6 |
| 20260508234223 | 8 | 230 | 0.0 | 0.0 | 0.00 | 0.18 | 0.18 | 89 | 1008.7 |
| 20260508233723 | 8 | 230 | 0.0 | 0.0 | 0.00 | 0.18 | 0.18 | 89 | 1008.7 |
| 20260508233221 | 8 | 231 | 0.0 | 1.6 | 0.00 | 0.18 | 0.18 | 87 | 1009.0 |
| 20260508232718 | 8 | 231 | 1.6 | 3.2 | 0.00 | 0.18 | 0.18 | 86 | 1008.6 |
| 20260508232214 | 8 | 231 | 1.6 | 3.2 | 0.00 | 0.18 | 0.18 | 86 | 1008.5 |
| 20260508231713 | 8 | 232 | 3.2 | 3.2 | 0.00 | 0.18 | 0.18 | 85 | 1008.6 |
| 20260508231209 | 8 | 237 | 4.8 | 4.8 | 0.00 | 0.18 | 0.18 | 84 | 1008.7 |
| 20260508230706 | 8 | 256 | 3.2 | 6.4 | 0.00 | 0.18 | 0.18 | 84 | 1008.9 |
| 20260508230202 | 8 | 248 | 6.4 | 9.7 | 0.00 | 0.18 | 0.18 | 84 | 1009.0 |
| 20260508225700 | 9 | 243 | 6.4 | 11.3 | 0.00 | 0.18 | 0.18 | 84 | 1008.9 |
| 20260508225155 | 9 | 254 | 8.0 | 16.1 | 0.18 | 0.18 | 0.18 | 84 | 1009.2 |
| 20260508224654 | 9 | 286 | 9.7 | 14.5 | 0.30 | 0.18 | 0.18 | 83 | 1009.3 |
| 20260508224151 | 9 | 279 | 6.4 | 14.5 | 0.30 | 0.15 | 0.15 | 83 | 1009.2 |
| 20260508223649 | 10 | 259 | 11.3 | 11.3 | 0.18 | 0.13 | 0.13 | 79 | 1009.1 |
| 20260508223146 | 10 | 237 | 6.4 | 12.9 | 0.00 | 0.10 | 0.10 | 77 | 1009.1 |
| 20260508222643 | 10 | 257 | 8.0 | 11.3 | 0.00 | 0.10 | 0.10 | 75 | 1009.2 |